Temperature
7 7 6 6 5 5 5 4 4 4 4 4 4 3 3 3 3 3 3 3 2 2 2 2 3 3 3 3 3 3 3 3 3 3 3 4 4 4 4 4 4 4 5
6 6 5 5 5 5 4 4 4 4 4 3 3 3 3 3 3 2 2 2 2 2 2 2 2 2 2 2 2 3 3 3 3 3 3 3 4 4 4 4 4 4 4
6 5 5 5 4 4 4 4 4 3 3 3 3 3 2 2 2 1 1 1 0 1 1 1 2 2 2 2 2 3 3 3 3 3 3 3 3 3 3 4 4 4 4
5 4 4 4 4 4 4 4 3 3 3 3 2 2 2 1 1 1 0 -0 -0 0 1 1 2 2 2 2 2 2 2 2 2 2 2 3 3 3 3 4 4 3 3
4 4 4 4 4 4 4 3 3 3 3 3 2 2 1 1 0 0 -0 -1 0 1 1 2 2 2 2 2 2 2 2 2 2 2 2 3 3 3 3 4 3 3 3
4 4 4 4 4 4 4 4 3 3 3 3 2 2 1 0 0 -0 -1 -0 1 1 1 1 2 2 2 2 2 2 1 2 2 2 2 3 3 3 3 3 3 3 2
4 4 4 4 4 4 4 3 3 3 3 3 2 2 1 1 -0 -1 -1 -0 -0 0 1 1 1 2 2 1 2 2 2 2 2 3 3 3 3 3 3 3 3 3 2
5 5 5 4 4 4 4 4 3 3 3 3 3 2 1 1 -0 -1 -1 -1 -1 -1 -0 0 1 1 1 1 1 2 2 3 3 3 3 3 3 3 3 3 3 2 2
5 5 5 4 4 4 4 4 3 3 3 3 2 2 1 0 -1 -1 -2 -2 -2 -2 -1 -0 0 1 1 1 1 2 3 3 3 3 3 3 3 3 3 3 3 2 1
5 5 5 4 4 4 4 4 3 3 3 3 2 2 1 -0 -1 -2 -3 -3 -3 -2 -1 -0 0 1 1 1 1 1 2 3 3 3 3 3 3 3 3 3 3 3 1
5 5 5 5 5 5 4 4 3 3 3 3 2 1 0 -1 -2 -3 -3 -4 -3 -3 -2 -1 -0 1 1 0 1 1 2 3 3 3 3 3 3 3 3 2 2 2 1
5 5 5 5 5 5 5 4 4 3 3 2 1 0 -1 -2 -3 -3 -4 -4 -3 -3 -2 -1 0 1 0 0 0 1 2 2 3 3 3 2 2 2 2 2 1 1 0
6 6 6 6 6 5 5 5 4 3 2 2 0 -1 -2 -3 -3 -4 -4 -4 -3 -3 -1 -0 0 1 0 -0 -0 1 2 2 2 2 2 2 2 2 2 1 1 -0 -1
6 6 6 6 6 5 5 5 4 3 2 0 -1 -2 -3 -3 -4 -4 -4 -4 -3 -2 -1 -0 0 0 0 -0 -0 1 1 2 2 2 2 2 2 1 1 0 -0 -1 -1
6 6 6 6 5 5 5 4 4 3 1 -1 -2 -3 -3 -4 -4 -4 -5 -4 -3 -2 -1 -0 0 0 0 -0 -1 -0 1 1 2 2 2 1 1 1 0 -0 -0 -0 -1
6 5 6 6 5 5 5 4 3 1 -0 -1 -2 -3 -3 -4 -4 -4 -4 -4 -3 -2 -1 -1 -0 0 0 -0 -1 -1 -0 0 1 1 1 1 1 1 0 0 -0 -0 -1
5 5 5 5 5 5 4 4 2 0 -1 -2 -2 -3 -3 -3 -3 -4 -4 -4 -3 -2 -1 -1 -0 -0 -0 -0 -1 -1 -1 -0 0 1 1 1 1 0 0 0 -0 -1 -0
5 5 5 5 4 4 3 2 1 -0 -1 -2 -3 -3 -3 -3 -3 -3 -4 -3 -3 -2 -1 -1 -0 0 0 -0 -0 -1 -1 -0 -0 0 0 0 0 0 -0 -0 -0 -1 -0
5 5 4 4 4 3 2 1 -0 -1 -2 -3 -3 -3 -3 -3 -3 -3 -3 -3 -3 -2 -1 -1 -0 0 0 -0 -0 -0 -0 -0 -0 -0 -0 -0 -0 -0 -0 -1 -1 -1 -0
6 5 4 4 3 3 1 -0 -1 -2 -3 -3 -3 -3 -3 -3 -3 -3 -3 -3 -2 -2 -1 -1 -0 -0 0 -0 -0 -0 -0 -0 -0 -0 -0 -0 -0 -0 -0 -1 -0 0 0
6 5 4 4 3 2 0 -1 -2 -3 -3 -3 -3 -3 -3 -3 -3 -3 -3 -2 -2 -2 -1 -1 -1 -0 0 0 0 -0 -0 -0 -0 -0 -0 -0 -0 -0 -0 -0 -0 0 0
6 5 4 4 2 1 -1 -2 -3 -3 -3 -3 -3 -3 -2 -2 -2 -2 -2 -2 -2 -2 -1 -1 -1 -0 0 0 0 0 0 -0 -0 -0 -0 -0 -0 -0 -0 -0 0 0 1
5 5 4 3 2 1 -1 -2 -3 -3 -3 -3 -3 -2 -2 -2 -2 -2 -2 -2 -1 -1 -1 -1 -0 -0 0 0 1 0 0 0 -0 -0 -0 -0 -0 -0 -0 -0 0 1 1
5 5 4 3 2 1 -1 -2 -2 -2 -3 -2 -2 -2 -2 -2 -2 -2 -1 -1 -1 -1 -1 -0 -0 0 0 0 1 1 0 0 0 0 -0 -0 -0 -0 -0 0 1 1 1
5 4 4 3 2 2 0 -1 -2 -2 -2 -2 -2 -2 -2 -2 -2 -1 -1 -1 -1 -1 -1 -0 -0 0 0 0 1 1 1 1 1 0 0 -0 -0 -0 0 1 1 1 1
5 4 4 3 2 2 1 0 -1 -2 -2 -2 -2 -2 -2 -2 -2 -1 -1 -1 -1 -1 -1 -0 -0 0 0 0 0 0 1 1 0 0 0 0 0 0 0 1 1 1 1
Wind_Speed
9 8 8 9 9 10 9 9 9 9 9 10 10 9 9 9 9 8 9 9 9 9 9 10 10 9 8 6 7 8 9 9 12 9 8 9 9 9 5 2 5 4 5
9 8 8 8 8 9 9 9 9 9 9 10 10 10 10 10 9 9 11 12 12 13 13 12 12 11 8 7 8 9 9 9 11 13 9 7 8 7 3 4 4 4 4
9 8 7 8 8 9 9 9 8 8 8 9 9 9 10 9 9 10 11 13 13 13 13 13 13 11 9 8 9 10 9 10 9 11 10 6 5 4 3 4 6 4 5
9 9 8 8 8 9 8 8 7 7 7 8 8 9 10 10 12 13 14 14 14 15 14 13 11 8 8 10 9 9 10 10 10 10 9 7 5 3 3 4 4 5 5
9 9 8 8 8 8 7 7 7 7 9 8 7 7 8 7 10 14 16 17 16 15 13 11 9 12 14 12 11 11 12 11 11 10 9 7 5 4 4 4 5 6 6
9 9 9 7 8 7 6 6 7 7 8 8 7 7 7 6 8 15 19 18 16 14 12 10 10 10 15 19 21 22 21 16 13 10 9 8 5 4 5 7 7 4 3
8 9 8 7 7 7 9 8 8 8 8 7 6 5 6 4 6 12 23 19 16 12 12 10 10 12 14 14 20 24 22 23 21 13 10 7 6 6 8 8 6 5 5
6 7 7 7 8 7 7 8 8 7 8 7 6 6 7 7 9 14 23 17 14 13 12 8 9 12 13 17 18 18 17 14 11 9 7 6 6 10 9 9 12 11 10
8 7 8 8 9 9 8 8 8 7 8 8 6 7 7 8 12 15 21 15 13 15 14 9 9 12 17 20 17 16 15 8 1 5 6 10 16 18 16 13 12 12 10
8 7 6 6 7 9 6 7 7 6 7 8 7 6 8 9 12 16 21 14 14 14 13 10 11 14 19 18 14 13 12 5 6 8 11 15 16 16 14 11 11 12 10
8 8 8 6 6 6 5 6 6 6 7 8 8 8 8 10 13 16 20 15 14 14 13 11 11 18 19 15 13 11 9 4 8 10 11 11 11 10 9 9 7 6 8
8 8 8 7 7 7 6 5 4 5 7 8 8 10 9 10 12 15 19 19 18 14 12 10 11 18 17 12 11 13 11 6 7 9 9 10 9 10 10 11 11 11 13
8 8 8 8 5 4 5 5 5 5 7 10 11 11 11 10 12 16 17 18 21 14 12 17 18 17 12 8 13 15 9 5 6 8 9 10 9 11 12 13 14 12 15
8 9 8 6 7 7 6 5 6 8 10 11 12 12 11 11 12 14 13 13 16 14 13 14 14 12 9 7 9 10 8 7 6 8 10 11 10 10 11 11 11 11 13
7 7 11 8 9 7 8 8 10 11 10 10 10 11 11 11 14 18 14 12 12 13 13 7 7 8 8 6 6 8 8 7 8 8 9 10 11 11 10 6 8 10 12
8 8 9 7 7 8 8 9 14 11 10 8 7 9 10 9 14 17 19 18 17 19 11 7 8 8 8 7 6 6 7 7 7 8 8 9 10 10 9 8 9 10 10
9 8 9 9 9 10 10 9 7 5 4 2 6 13 13 10 12 17 19 18 15 15 8 8 8 8 8 6 6 6 6 6 6 7 8 9 10 10 9 10 10 9 7
9 10 10 9 9 11 11 12 12 11 9 7 9 16 17 12 12 15 16 13 10 11 9 9 9 9 8 6 6 6 5 6 7 7 8 9 9 9 9 9 8 8 8
9 9 9 9 10 11 13 13 12 13 11 11 11 14 16 14 13 14 12 9 8 9 9 9 9 9 8 7 6 7 7 7 7 7 7 8 8 7 7 7 7 10 8
7 8 9 10 11 12 13 13 12 12 11 11 10 12 13 11 10 11 9 9 8 9 9 9 9 9 9 7 6 6 7 7 8 7 7 7 7 6 6 8 7 6 6
9 10 11 11 12 13 13 13 12 12 11 10 10 12 15 11 10 10 9 8 8 8 9 9 9 9 8 7 6 6 6 7 6 6 6 6 6 6 6 6 6 6 7
8 9 10 11 12 13 14 13 12 11 12 12 10 11 14 11 10 10 9 8 8 7 8 7 7 7 7 6 5 5 5 6 6 5 5 6 6 6 6 6 6 6 7
9 10 10 11 12 13 14 13 12 11 11 11 11 11 11 10 10 10 10 9 8 8 8 7 7 7 6 7 7 5 5 4 4 4 5 5 5 4 4 5 6 6 7
10 11 11 11 11 12 12 12 11 11 11 11 11 11 11 11 11 11 11 10 9 9 11 11 10 11 12 9 10 10 9 6 3 6 5 5 4 3 2 3 5 6 6
10 10 11 11 11 11 11 11 10 10 10 10 11 11 11 11 11 12 11 11 11 10 13 14 14 14 15 15 14 13 14 12 7 6 9 6 5 3 3 3 4 4 6
10 11 10 11 11 11 10 10 10 10 9 9 9 10 11 11 11 12 11 12 11 11 13 15 19 20 21 17 17 19 20 19 14 6 7 8 6 5 4 3 4 4 8
Wind_Direction
358 2 3 359 354 346 341 338 333 326 323 320 318 312 309 305 306 307 306 307 310 305 299 294 291 285 279 280 287 283 274 270 279 281 276 281 279 283 286 113 108 98 69
356 5 11 356 349 340 336 330 326 326 324 321 315 315 322 331 341 354 353 346 333 321 313 306 301 296 279 281 282 279 273 266 273 281 280 275 275 277 216 148 115 89 52
356 357 358 345 337 327 322 321 323 325 325 329 336 344 347 350 7 5 350 337 324 314 308 302 298 294 283 282 283 280 274 272 266 276 279 266 262 252 179 122 93 65 46
345 340 336 330 325 319 321 324 331 339 338 344 348 357 358 7 15 358 345 331 321 313 304 295 292 292 292 296 298 294 293 286 274 271 272 262 242 206 143 127 101 68 51
331 333 333 327 325 328 334 338 346 344 339 340 350 1 359 7 13 358 345 332 320 313 313 317 327 325 320 316 309 302 298 289 278 266 262 255 227 178 151 129 118 104 67
330 326 323 333 334 338 338 346 346 339 336 338 348 359 357 6 4 354 350 332 317 314 322 328 330 329 325 317 310 306 299 288 277 261 250 241 207 158 137 138 135 132 95
310 311 321 337 336 347 345 344 338 333 331 330 341 356 355 35 5 351 349 334 319 321 325 326 333 330 323 318 312 308 300 288 272 253 239 222 177 150 143 134 113 95 95
331 347 351 350 347 342 331 334 331 328 327 329 334 349 353 19 12 357 350 333 324 325 323 327 336 329 325 324 315 310 306 295 270 231 216 190 148 140 133 124 117 103 83
11 3 359 351 337 322 329 334 331 331 330 333 336 350 360 12 17 4 354 334 332 330 323 327 343 332 328 327 322 318 320 323 337 162 156 135 130 130 130 125 124 115 101
352 344 330 322 312 312 332 334 333 330 335 334 339 5 19 13 17 10 354 339 335 330 322 330 341 337 331 330 328 324 326 0 75 93 101 108 116 121 121 126 130 126 119
329 317 303 300 296 307 327 316 323 340 344 342 357 10 23 17 9 4 349 342 337 327 324 332 333 331 331 332 332 332 337 26 87 93 99 104 107 106 97 91 87 101 111
313 305 303 297 297 310 304 306 332 6 358 357 2 0 3 7 6 353 340 334 332 327 326 330 329 328 334 351 351 347 1 53 93 100 103 105 106 105 101 96 92 90 97
312 309 306 304 299 314 317 334 350 13 12 4 2 355 356 358 355 349 339 333 333 335 331 331 333 335 349 10 355 356 12 53 89 102 104 104 104 107 105 106 106 102 99
340 344 329 327 8 346 335 1 11 26 25 16 6 354 357 359 357 351 345 340 340 340 332 328 332 343 5 15 5 7 27 51 75 92 102 107 109 111 114 118 120 117 113
342 355 334 357 20 349 14 45 62 67 67 43 18 1 4 2 351 342 346 347 344 336 330 335 356 358 1 16 31 23 28 48 70 85 102 111 115 116 117 113 115 118 121
354 7 343 8 9 1 15 68 79 104 104 84 40 15 15 7 347 349 350 344 340 341 348 360 2 359 0 20 46 44 40 48 61 75 92 107 115 119 115 104 106 114 122
10 9 351 11 8 12 12 31 69 96 133 138 30 17 9 5 3 357 351 344 349 353 2 3 2 358 1 18 46 58 60 62 66 74 86 97 107 110 110 111 115 117 115
22 12 2 16 15 18 24 32 31 27 29 28 21 13 7 16 12 359 350 352 4 3 2 1 360 358 1 15 44 60 69 75 79 84 85 91 100 105 107 111 117 123 122
46 24 9 21 25 29 34 32 29 28 27 24 18 8 0 1 2 1 358 11 6 358 356 359 359 360 5 19 43 50 61 83 88 91 95 100 103 106 110 115 122 133 129
82 42 20 32 30 37 39 33 30 28 25 21 17 6 355 355 3 4 7 8 3 357 355 355 355 358 6 18 32 46 59 71 77 79 85 99 114 114 117 126 132 131 121
51 43 35 44 40 42 42 35 33 28 24 19 11 2 357 360 2 2 4 3 358 353 351 349 348 351 1 13 23 41 61 72 73 68 69 89 112 107 100 107 114 116 118
50 53 43 47 54 52 49 41 35 29 22 16 6 1 358 4 3 2 1 359 352 345 340 340 343 346 352 4 20 48 73 85 85 79 68 71 89 101 105 115 121 124 123
51 49 50 54 61 65 56 48 39 30 23 15 7 3 3 3 2 2 0 357 352 349 348 349 352 356 360 15 31 43 59 79 98 107 97 87 91 108 128 139 143 143 135
57 54 52 52 60 64 62 56 46 34 25 17 10 6 3 3 5 5 3 1 0 0 3 6 9 14 24 31 39 43 41 48 103 149 141 129 114 110 139 144 144 157 136
56 57 57 53 52 60 64 62 55 45 32 22 17 12 8 8 8 8 6 5 5 9 11 13 18 19 26 36 36 34 33 45 71 149 156 144 150 160 172 154 136 141 129
61 60 61 60 54 51 53 58 60 54 42 30 23 19 16 12 10 9 8 11 12 13 14 14 19 25 23 28 28 30 34 38 43 62 155 152 152 160 166 154 146 127 126
Height
1529 1525 1522 1519 1516 1513 1510 1507 1504 1501 1497 1494 1491 1489 1486 1482 1479 1475 1471 1468 1465 1461 1458 1455 1451 1448 1445 1443 1440 1437 1434 1431 1427 1424 1424 1423 1422 1421 1421 1420 1419 1418 1417
1527 1523 1519 1516 1513 1510 1508 1505 1502 1499 1496 1493 1490 1487 1483 1480 1476 1472 1468 1464 1461 1457 1453 1450 1446 1443 1440 1437 1434 1430 1428 1425 1422 1418 1417 1417 1416 1416 1415 1415 1414 1414 1413
1524 1520 1517 1514 1511 1509 1506 1503 1500 1497 1494 1491 1488 1485 1481 1477 1473 1468 1464 1460 1456 1451 1447 1443 1441 1438 1434 1431 1428 1425 1421 1418 1416 1413 1410 1410 1410 1410 1410 1410 1410 1410 1410
1521 1518 1516 1513 1510 1508 1505 1502 1499 1496 1493 1490 1486 1482 1479 1474 1469 1465 1461 1455 1450 1445 1441 1438 1436 1433 1429 1426 1422 1419 1415 1412 1409 1406 1404 1404 1404 1405 1406 1406 1407 1408 1408
1519 1517 1515 1512 1510 1507 1504 1501 1498 1495 1492 1488 1484 1480 1476 1472 1467 1463 1457 1451 1446 1441 1438 1435 1432 1429 1425 1421 1417 1412 1407 1403 1400 1398 1397 1398 1399 1400 1402 1403 1405 1406 1407
1518 1516 1514 1512 1509 1507 1504 1501 1497 1494 1490 1487 1483 1478 1474 1470 1465 1460 1454 1447 1442 1439 1435 1431 1427 1424 1419 1415 1410 1404 1399 1393 1390 1389 1390 1392 1393 1396 1398 1401 1403 1405 1406
1518 1516 1514 1512 1509 1507 1504 1500 1496 1493 1489 1485 1482 1477 1473 1468 1463 1457 1451 1445 1440 1436 1432 1428 1423 1419 1414 1408 1401 1394 1387 1382 1380 1380 1383 1386 1389 1392 1395 1399 1402 1404 1406
1518 1516 1514 1512 1509 1506 1503 1499 1495 1491 1488 1484 1481 1476 1472 1467 1461 1454 1448 1441 1437 1434 1429 1425 1420 1415 1409 1403 1395 1386 1380 1375 1372 1373 1378 1383 1387 1390 1394 1398 1401 1404 1407
1519 1516 1514 1512 1509 1505 1502 1498 1494 1490 1487 1483 1479 1474 1470 1465 1458 1452 1445 1438 1434 1430 1426 1423 1418 1412 1406 1400 1391 1383 1377 1374 1372 1373 1377 1382 1386 1389 1393 1397 1401 1403 1408
1519 1517 1514 1511 1508 1504 1501 1497 1493 1489 1486 1482 1478 1473 1468 1462 1456 1450 1444 1437 1432 1427 1423 1419 1415 1409 1403 1397 1390 1383 1379 1376 1375 1376 1379 1383 1386 1390 1395 1399 1402 1404 1407
1519 1516 1513 1510 1506 1503 1500 1496 1492 1488 1485 1481 1477 1473 1467 1461 1454 1448 1442 1435 1430 1425 1421 1417 1412 1407 1401 1395 1389 1384 1381 1379 1379 1380 1382 1386 1390 1394 1398 1402 1405 1407 1408
1517 1514 1511 1508 1504 1501 1498 1494 1491 1487 1483 1480 1475 1471 1466 1459 1452 1445 1439 1433 1428 1424 1420 1416 1411 1406 1400 1395 1389 1385 1383 1382 1383 1384 1387 1390 1394 1398 1402 1405 1409 1411 1414
1516 1513 1510 1506 1503 1500 1497 1493 1490 1486 1482 1479 1474 1469 1463 1457 1451 1443 1436 1431 1426 1423 1419 1415 1411 1406 1401 1395 1390 1388 1386 1386 1387 1388 1391 1395 1398 1402 1406 1410 1414 1417 1421
1515 1512 1509 1506 1502 1500 1496 1492 1489 1485 1481 1478 1473 1468 1462 1456 1449 1442 1435 1430 1426 1422 1419 1416 1412 1408 1404 1398 1394 1391 1390 1390 1391 1393 1396 1400 1403 1407 1411 1415 1419 1423 1427
1515 1512 1509 1506 1503 1499 1495 1491 1487 1484 1481 1478 1473 1468 1462 1456 1451 1444 1438 1432 1428 1424 1421 1418 1414 1411 1407 1402 1399 1396 1395 1396 1397 1398 1401 1405 1409 1413 1417 1422 1425 1428 1432
1516 1512 1510 1507 1503 1500 1496 1491 1487 1485 1482 1478 1474 1469 1464 1459 1453 1446 1440 1435 1430 1427 1424 1420 1418 1414 1411 1407 1404 1402 1401 1401 1403 1404 1407 1410 1414 1418 1423 1427 1430 1434 1438
1517 1514 1511 1508 1505 1501 1498 1495 1490 1486 1483 1480 1476 1472 1467 1461 1455 1448 1442 1438 1434 1431 1427 1425 1422 1419 1416 1413 1410 1409 1408 1408 1409 1411 1413 1416 1420 1424 1428 1432 1435 1439 1444
1519 1515 1513 1510 1507 1503 1500 1497 1493 1490 1487 1483 1479 1474 1469 1463 1458 1452 1446 1442 1438 1435 1432 1429 1427 1424 1421 1418 1416 1415 1414 1414 1415 1417 1420 1423 1426 1429 1433 1437 1441 1445 1449
1520 1517 1514 1512 1509 1506 1503 1499 1496 1492 1489 1485 1481 1475 1471 1466 1461 1456 1451 1447 1444 1441 1437 1435 1432 1429 1427 1425 1423 1422 1421 1421 1422 1424 1427 1430 1433 1436 1439 1443 1447 1451 1454
1522 1519 1517 1515 1512 1509 1505 1502 1498 1495 1491 1487 1483 1478 1473 1468 1463 1459 1455 1452 1449 1446 1443 1440 1438 1435 1433 1431 1430 1429 1429 1429 1430 1432 1434 1437 1439 1442 1445 1448 1452 1455 1459
1526 1523 1520 1518 1515 1512 1509 1505 1502 1498 1495 1491 1487 1483 1478 1472 1468 1464 1460 1457 1454 1451 1448 1446 1443 1441 1439 1437 1436 1436 1436 1437 1438 1439 1440 1443 1445 1448 1450 1453 1456 1460 1463
1529 1526 1524 1522 1519 1516 1513 1509 1506 1502 1499 1495 1491 1486 1482 1477 1473 1469 1465 1462 1459 1456 1453 1450 1448 1446 1444 1443 1442 1442 1442 1443 1444 1445 1447 1449 1451 1453 1455 1458 1461 1464 1467
1531 1529 1528 1526 1523 1520 1517 1514 1510 1507 1503 1499 1495 1490 1486 1482 1478 1474 1470 1467 1464 1460 1457 1454 1451 1450 1448 1447 1447 1447 1448 1448 1449 1450 1452 1453 1455 1457 1460 1462 1465 1468 1471
1534 1533 1531 1529 1527 1524 1522 1519 1516 1512 1508 1504 1500 1496 1492 1488 1484 1480 1476 1473 1469 1465 1462 1459 1456 1455 1453 1453 1452 1452 1452 1452 1453 1454 1456 1457 1459 1461 1464 1466 1469 1472 1475
1537 1536 1535 1533 1531 1529 1526 1524 1521 1518 1514 1510 1506 1502 1498 1494 1490 1486 1482 1478 1475 1471 1468 1465 1463 1461 1460 1459 1458 1458 1457 1457 1457 1458 1460 1461 1463 1465 1467 1470 1473 1476 1478
1541 1540 1538 1537 1535 1533 1531 1529 1526 1523 1519 1516 1512 1508 1504 1500 1496 1492 1488 1485 1481 1478 1475 1472 1470 1468 1466 1465 1465 1464 1463 1463 1463 1464 1465 1466 1467 1469 1471 1474 1477 1479 1481